DateTimeUTC,F1_A11,F1_S11,BsB_S11,BsG_S11,BsR_S11,BbsB_S11,BbsG_S11,BbsR_S11,BaB_A11,BaG_A11,BaR_A11,Tu_S11,T_S11,Uu_S11,U_S11,P_S11,T1_A11
2021-04-16T19:00:00Z,00000200,21000000,,,,,,,-000.06,-000.15,-000.15,17.8,25.0,,00.0,0648.7,31.0
2021-04-16T19:01:00Z,00000200,21000000,,,,,,,-000.26,-000.21,-000.23,17.8,25.0,,00.0,0648.6,31.0
2021-04-16T19:02:00Z,00000200,21000000,,,,,,,-000.34,-001.06,-000.19,17.7,25.0,,00.0,0648.6,31.0
2021-04-16T19:03:00Z,00000200,61000000,,,,,,,0000.65,0000.65,0000.32,17.7,25.0,,00.0,0648.6,31.0
2021-04-16T19:04:00Z,00000200,41000000,0000.82,0000.37,0000.46,0000.35,0000.15,0000.30,0000.24,0000.87,0000.27,17.7,24.7,,00.0,0649.7,31.0
2021-04-16T19:05:00Z,00000200,01000000,0000.43,0000.64,0000.34,0000.32,0000.03,0000.24,0000.03,0000.09,0000.13,17.8,24.7,,00.0,0649.7,31.0
2021-04-16T19:06:00Z,00000200,01000000,0001.11,0000.54,0000.62,0000.14,0000.01,0000.19,0000.31,-000.01,0000.16,17.8,24.7,,00.0,0649.6,31.0
2021-04-16T19:07:00Z,00000200,01000000,0000.63,0000.50,0000.67,-000.19,0000.17,0000.45,0000.16,0000.78,0000.53,17.9,24.7,,00.0,0649.6,31.0
2021-04-16T19:08:00Z,00000200,01000000,0001.51,0000.40,0000.38,0000.28,-000.11,0000.07,0000.38,-000.07,-000.12,17.9,24.7,,00.0,0649.7,31.0
2021-04-16T19:09:00Z,00000200,01000000,0000.47,0000.48,0000.41,0000.40,-000.02,0000.17,0000.01,0000.40,0000.32,18.0,24.8,,00.0,0649.7,31.1
2021-04-16T19:10:00Z,00000200,01000000,0000.68,0000.53,0000.60,0000.14,0000.24,0000.13,-000.13,-000.61,-000.00,18.0,24.8,,00.0,0649.6,31.1
2021-04-16T19:11:00Z,00000200,01000000,0001.28,0000.57,0000.46,-000.51,0000.27,0000.29,0000.47,0000.95,0000.25,18.0,24.8,,00.0,0649.6,31.0
2021-04-16T19:12:00Z,00000200,01000000,0001.04,0000.57,0000.36,-000.07,0000.20,0000.26,0000.43,-000.10,0000.12,18.0,24.8,,00.0,0649.7,31.0
2021-04-16T19:13:00Z,00000200,01000000,0000.56,0000.48,0000.31,0000.20,-000.10,0000.12,0000.14,0000.13,-000.04,17.9,24.7,,00.0,0649.5,31.0
2021-04-16T19:14:00Z,00000200,01000000,0000.83,0000.57,0000.59,-000.04,-000.04,0000.34,-000.03,0000.08,-000.01,17.9,24.7,,00.0,0649.6,31.0
2021-04-16T19:15:00Z,00000200,01000000,0001.41,0000.54,0000.64,-000.23,-000.03,0000.26,0000.24,0000.42,0000.21,17.8,24.7,,00.0,0649.5,31.0
2021-04-16T19:16:00Z,00000200,01000000,0001.20,0000.91,0000.47,-000.06,0000.13,0000.24,0000.18,-000.22,0000.15,17.8,24.7,,00.0,0649.5,31.0
2021-04-16T19:17:00Z,00000200,01000000,0001.38,0000.61,0000.65,0000.17,0000.03,0000.05,0000.01,-000.01,0000.49,17.8,24.7,,00.0,0649.5,31.0
2021-04-16T19:18:00Z,00000200,01000000,0001.16,0000.36,0000.37,-000.17,-000.15,0000.15,0000.25,0000.28,0000.09,17.7,24.6,,00.0,0649.6,31.0
2021-04-16T19:19:00Z,00000200,01000000,0001.15,0000.57,0000.50,0000.16,-000.06,0000.43,0000.42,0000.23,0000.33,17.8,24.6,,00.0,0649.7,31.0
2021-04-16T19:20:00Z,00000200,01000000,0001.26,0000.38,0000.47,-000.03,-000.03,0000.26,0000.25,0000.36,0000.28,17.8,24.6,,00.0,0649.7,31.0
2021-04-16T19:21:00Z,00000200,01000000,0001.04,0000.36,0000.71,0000.08,-000.05,0000.37,0000.34,0000.18,0000.18,17.9,24.6,,00.0,0649.6,31.0
2021-04-16T19:22:00Z,00000200,01000000,0001.22,0000.42,0000.58,0000.09,-000.08,0000.34,-000.12,0000.03,-000.13,17.9,24.7,,00.0,0649.7,31.1
2021-04-16T19:23:00Z,00000200,01000000,0001.41,0000.56,0000.54,-000.38,0000.17,0000.24,0000.26,0000.45,0000.47,18.0,24.7,,00.0,0649.6,31.1
2021-04-16T19:24:00Z,00000200,01000000,0000.86,0000.44,0000.06,-000.50,0000.18,-000.23,-000.04,-000.05,-000.39,18.0,24.7,,00.0,0649.6,31.1
2021-04-16T19:25:00Z,00000200,01000000,0001.03,0000.75,0000.68,-000.06,0000.13,0000.23,0000.34,0000.51,0000.85,18.1,24.7,,00.0,0649.7,31.1
2021-04-16T19:26:00Z,00000200,01000000,0000.64,0000.44,0000.29,-000.01,0000.06,0000.24,0000.14,0000.18,-000.25,18.1,24.8,,00.0,0649.7,31.1
2021-04-16T19:27:00Z,00000200,01000000,0000.80,0000.28,0000.38,0000.08,-000.10,0000.36,0000.35,-000.10,0000.18,18.2,24.8,,00.0,0649.7,31.1
2021-04-16T19:28:00Z,00000200,01000000,0000.78,0000.39,0000.70,0000.05,0000.26,0000.49,0000.01,-000.00,-000.16,18.2,24.8,,00.0,0649.6,31.1
2021-04-16T19:29:00Z,00000200,01000000,0001.18,0000.48,0000.42,0000.19,0000.09,0000.31,-000.14,0000.09,0000.36,18.2,24.8,,00.0,0649.5,31.1
2021-04-16T19:30:00Z,00000200,01000000,0000.67,0000.50,0000.32,-000.03,-000.06,0000.30,0000.03,0000.29,-000.10,18.3,24.9,,00.0,0649.5,31.1
2021-04-16T19:31:00Z,00000200,01000000,0000.84,0000.52,0000.29,0000.35,0000.03,0000.13,-000.25,-000.33,-000.31,18.3,24.9,,00.0,0649.5,31.1
2021-04-16T19:32:00Z,00000200,01000000,0000.50,0000.26,0000.65,0000.11,0000.14,0000.27,-000.16,0000.13,0000.47,18.4,24.9,,00.0,0649.4,31.1
2021-04-16T19:33:00Z,00000200,01000000,0001.66,0000.57,0000.53,0000.34,0000.25,0000.27,0000.08,0000.00,-000.08,18.4,25.0,,00.0,0649.6,31.1
2021-04-16T19:34:00Z,00000200,01000000,0000.82,0000.26,0000.45,-000.16,0000.17,0000.31,-000.67,-000.78,-000.43,18.5,25.0,,00.0,0649.6,31.1
2021-04-16T19:35:00Z,00000200,01000000,0000.71,0000.52,0000.33,-000.39,0000.09,0000.47,0000.31,0000.28,0000.11,18.4,25.0,,00.0,0649.6,31.1
2021-04-16T19:36:00Z,00000200,01000000,0000.99,0000.46,0000.37,0000.02,-000.08,0000.13,0000.05,-000.07,0000.13,18.4,25.0,,00.0,0649.7,31.0
2021-04-16T19:37:00Z,00000200,01000000,0000.82,0000.42,0000.52,-000.16,0000.39,0000.32,0000.27,0000.01,-000.13,18.3,24.9,,00.0,0649.8,31.0
2021-04-16T19:38:00Z,00000200,01000000,0000.77,0000.72,0000.45,0000.45,0000.11,0000.21,-000.63,0000.27,-000.02,18.2,24.9,,00.0,0649.9,31.0
2021-04-16T19:39:00Z,00000200,01000000,0000.81,0000.60,0000.48,0000.52,0000.09,0000.32,0000.87,0000.46,0000.23,18.1,24.9,,00.0,0649.8,31.0
2021-04-16T19:40:00Z,00000200,01000000,0001.06,0000.37,0000.36,-000.44,0000.14,0000.38,0001.02,0000.45,0000.74,18.0,24.8,,00.0,0649.9,31.0
2021-04-16T19:41:00Z,00000200,01000000,0001.33,0000.37,0000.44,-000.08,-000.07,0000.08,0000.39,0000.26,0000.08,18.0,24.8,,00.0,0649.9,31.0
2021-04-16T19:42:00Z,00000200,01000000,0000.61,0000.69,0000.24,0000.07,-000.02,0000.11,-000.02,0000.45,0000.47,17.9,24.8,,00.0,0649.9,31.0
2021-04-16T19:43:00Z,00000200,01000000,0000.74,0000.51,0000.55,0000.19,-000.01,0000.35,0000.41,0000.16,-000.05,17.9,24.8,,00.0,0650.0,31.0
2021-04-16T19:44:00Z,00000200,01000000,0001.01,0000.58,0000.59,0000.21,0000.02,0000.25,0000.18,0000.04,0000.35,17.8,24.7,,00.0,0650.0,31.0
2021-04-16T19:45:00Z,00000200,01000000,0001.54,0000.54,0000.43,-000.07,-000.16,0000.22,-000.19,-000.01,-000.19,17.8,24.7,,00.0,0650.0,31.0
2021-04-16T19:46:00Z,00000200,01000000,0001.09,0000.51,0000.36,-000.21,0000.11,0000.20,0000.07,-000.23,-000.39,17.7,24.7,,00.0,0649.7,31.0
2021-04-16T19:47:00Z,00000200,01000000,0000.95,0000.67,0000.57,-000.06,-000.03,0000.32,0000.07,0000.20,0000.51,17.7,24.7,,00.0,0649.7,31.0
2021-04-16T19:48:00Z,00000200,01000000,0000.45,0000.25,0000.23,0000.13,0000.25,0000.17,-000.20,-000.35,-000.10,17.6,24.6,,00.0,0649.8,31.0
2021-04-16T19:49:00Z,00000200,01000000,0000.63,0000.74,0000.62,-000.18,0000.20,0000.22,0001.01,0000.81,0000.34,17.6,24.6,,00.0,0649.8,30.9
2021-04-16T19:50:00Z,00000200,01000000,0000.75,0000.78,0000.46,-000.15,0000.12,0000.31,0000.21,0000.42,0000.42,17.6,24.6,,00.0,0649.7,31.0
2021-04-16T19:51:00Z,00000200,01000000,0000.87,0000.37,0000.65,0000.26,0000.06,0000.26,-000.53,-000.23,-000.11,17.7,24.6,,00.0,0649.8,31.0
2021-04-16T19:52:00Z,00000200,01000000,0000.86,0000.41,0000.16,-000.09,0000.05,0000.35,0000.50,0000.54,0000.06,17.7,24.6,,00.0,0649.8,31.0
2021-04-16T19:53:00Z,00000200,01000000,0001.44,0000.64,0000.50,-000.11,-000.15,0000.33,0000.24,0000.06,0000.44,17.8,24.6,,00.0,0649.8,31.0
2021-04-16T19:54:00Z,00000200,01000000,0000.46,0000.25,0000.27,0000.19,0000.02,0000.33,0000.40,0000.30,0000.42,17.8,24.7,,00.0,0649.9,31.0
2021-04-16T19:55:00Z,00000200,01000000,0001.09,0000.57,0000.43,0000.11,0000.09,0000.21,0000.11,0000.51,-000.10,17.9,24.7,,00.0,0649.8,31.0
2021-04-16T19:56:00Z,00000200,01000000,0001.11,0000.33,0000.40,0000.12,-000.18,0000.14,-000.39,-000.17,-000.27,18.0,24.8,,00.0,0649.9,31.1
2021-04-16T19:57:00Z,00000200,41000000,,,,,,,0001.10,0000.57,0000.64,18.0,24.8,,00.0,0650.0,31.0
2021-04-16T19:58:00Z,00000200,61000000,,,,,,,-000.19,-000.24,-000.33,17.8,24.9,,00.0,0648.9,31.0
2021-04-16T19:59:00Z,00000200,21000000,,,,,,,-000.31,-000.71,-000.12,17.8,25.0,,00.0,0648.9,31.0
